sat.trackr.live / text

‹ back to catalog

STARLINK-30563

NORAD 58042 · 2023-156Q

PAYLOAD ACTIVE UNKNOWN

§ Identity

Operator
Country
US
Launch date
2023-10-09
Launch site
AFWTR
Launch vehicle
Mass (kg)
RCS (m²)

Purposes: comms

External: N2YO · Heavens-Above · Gunter

§ Orbital elements

Epoch: 2026-05-25T04:38:21.319584Z

Period
94.11 min
Inclination
53.1614°
Eccentricity
0.0001196
Mean motion
15.30193459 rev/d
Perigee alt
474.4 km
Apogee alt
476.1 km
Semi-major
6,853.4 km
B*
3.1712e-5
RAAN
80.4036°
Arg perigee
92.4568°
Mean anomaly
267.6570°
Rev number
14,806

§ Raw data

STARLINK-305631 58042U 23156Q   26145.19330231  .00000580  00000+0  31712-4 0  99962 58042  53.1614  80.4036 0001196  92.4568 267.6570 15.30193459148065

JSON: /api/v1/satellites/58042 · /tle

For live sub-satellite position, see the globe view (requires WebGL).

§ Visibility from observer

Set your observer location to see the next 7 days of passes ≥ 10°. The values pass through the URL so the page stays shareable.

No JS? Fill the form by hand. The geolocation button needs JavaScript.